Radiation Dose at Monitoring Post of Fukushima Daini Nuclear Power Station
Date,Time,MP-1(microSv/h),MP-2(microSv/h),MP-3(microSv/h),MP-4(microSv/h),MP-5(microSv/h),MP-6(microSv/h),MP-7(microSv/h),Wind Direction,Wind Velocity(m/s),Rain
2021/02/04,00:00,0.180,0.162,0.259,0.245,0.240,0.142,0.087,south-southeast,1.8,No
2021/02/04,00:10,0.180,0.161,0.259,0.247,0.240,0.142,0.087,south-southwest,2.0,No
2021/02/04,00:20,0.181,0.161,0.259,0.247,0.241,0.142,0.086,west-southwest,3.4,No
2021/02/04,00:30,0.180,0.162,0.258,0.245,0.240,0.142,0.086,west-southwest,3.7,No
2021/02/04,00:40,0.180,0.162,0.260,0.245,0.240,0.143,0.085,west,4.1,No
2021/02/04,00:50,0.180,0.162,0.259,0.245,0.240,0.143,0.087,west,5.2,No
2021/02/04,01:00,0.181,0.162,0.259,0.245,0.240,0.142,0.087,west-southwest,7.3,No
2021/02/04,01:10,0.180,0.161,0.259,0.245,0.239,0.142,0.086,west-southwest,8.1,No
2021/02/04,01:20,0.180,0.161,0.259,0.244,0.239,0.143,0.086,west-southwest,10.0,No
2021/02/04,01:30,0.180,0.160,0.258,0.244,0.239,0.142,0.085,west-southwest,8.8,No
2021/02/04,01:40,0.179,0.162,0.259,0.245,0.239,0.142,0.087,west-southwest,9.0,No
2021/02/04,01:50,0.180,0.162,0.259,0.245,0.240,0.142,0.085,west-southwest,6.7,No
2021/02/04,02:00,0.180,0.162,0.259,0.244,0.239,0.141,0.086,west,6.4,No
2021/02/04,02:10,0.180,0.161,0.258,0.245,0.238,0.141,0.086,west,6.6,No
2021/02/04,02:20,0.180,0.161,0.257,0.244,0.241,0.141,0.086,west,7.3,No
2021/02/04,02:30,0.181,0.162,0.257,0.245,0.240,0.141,0.086,west,6.7,No
2021/02/04,02:40,0.180,0.162,0.257,0.244,0.239,0.142,0.087,west,7.3,No
2021/02/04,02:50,0.180,0.161,0.258,0.245,0.239,0.142,0.086,west,6.6,No
2021/02/04,03:00,0.180,0.162,0.259,0.244,0.239,0.142,0.086,west,8.7,No
2021/02/04,03:10,0.180,0.161,0.258,0.244,0.239,0.142,0.086,west-southwest,8.1,No
2021/02/04,03:20,0.179,0.161,0.259,0.244,0.241,0.141,0.086,west-southwest,8.2,No
2021/02/04,03:30,0.180,0.162,0.258,0.244,0.239,0.142,0.086,west,8.8,No
2021/02/04,03:40,0.180,0.161,0.258,0.244,0.238,0.142,0.086,west,9.5,No
2021/02/04,03:50,0.181,0.161,0.258,0.243,0.238,0.143,0.086,west,8.4,No
2021/02/04,04:00,0.179,0.163,0.259,0.244,0.239,0.142,0.087,west-northwest,7.0,No
2021/02/04,04:10,0.180,0.162,0.258,0.245,0.239,0.143,0.087,west,7.0,No
2021/02/04,04:20,0.180,0.162,0.259,0.244,0.239,0.142,0.086,west,7.3,No
2021/02/04,04:30,0.180,0.162,0.259,0.245,0.238,0.142,0.085,west,6.0,No
2021/02/04,04:40,0.180,0.161,0.258,0.244,0.240,0.142,0.086,west,7.4,No
2021/02/04,04:50,0.178,0.160,0.259,0.243,0.238,0.142,0.086,west,8.1,No
2021/02/04,05:00,0.179,0.161,0.258,0.244,0.239,0.141,0.086,west,8.1,No
2021/02/04,05:10,0.179,0.161,0.259,0.245,0.239,0.143,0.086,west,7.5,No
2021/02/04,05:20,0.179,0.162,0.258,0.245,0.241,0.141,0.086,west,7.4,No
2021/02/04,05:30,0.179,0.161,0.258,0.243,0.238,0.142,0.086,west,7.4,No
2021/02/04,05:40,0.180,0.161,0.258,0.245,0.239,0.141,0.086,west,9.0,No
2021/02/04,05:50,0.180,0.161,0.258,0.244,0.239,0.141,0.086,west-northwest,8.2,No
2021/02/04,06:00,0.180,0.161,0.258,0.244,0.238,0.142,0.086,west,8.1,No
2021/02/04,06:10,0.180,0.161,0.258,0.244,0.239,0.142,0.086,west-northwest,7.6,No
2021/02/04,06:20,0.180,0.161,0.259,0.245,0.238,0.142,0.086,west-northwest,7.1,No
2021/02/04,06:30,0.180,0.161,0.258,0.244,0.240,0.141,0.086,west,8.1,Yes
2021/02/04,06:40,0.181,0.162,0.258,0.244,0.239,0.142,0.086,west,9.2,No
2021/02/04,06:50,0.180,0.161,0.258,0.244,0.238,0.142,0.086,west,8.4,No
2021/02/04,07:00,0.180,0.162,0.257,0.245,0.239,0.142,0.086,west-northwest,4.1,No
2021/02/04,07:10,0.180,0.160,0.259,0.245,0.240,0.142,0.085,northwest,2.7,No
2021/02/04,07:20,0.180,0.161,0.258,0.245,0.239,0.141,0.085,northwest,4.0,No
2021/02/04,07:30,0.180,0.161,0.258,0.243,0.239,0.141,0.087,northwest,1.9,No
2021/02/04,07:40,0.179,0.161,0.258,0.244,0.238,0.142,0.086,northwest,2.8,No
2021/02/04,07:50,0.180,0.160,0.258,0.244,0.239,0.141,0.087,west-northwest,2.7,No
2021/02/04,08:00,0.180,0.161,0.258,0.244,0.238,0.142,0.085,west-northwest,3.9,No
2021/02/04,08:10,0.180,0.161,0.258,0.244,0.239,0.141,0.085,west,4.7,No
2021/02/04,08:20,0.181,0.162,0.258,0.244,0.238,0.141,0.085,west,4.9,No
2021/02/04,08:30,0.180,0.161,0.258,0.243,0.240,0.142,0.085,west,4.6,No
2021/02/04,08:40,0.179,0.161,0.258,0.243,0.239,0.142,0.085,southwest,3.2,No
2021/02/04,08:50,0.180,0.162,0.258,0.245,0.240,0.142,0.086,south-southwest,3.0,No
2021/02/04,09:00,0.180,0.162,0.258,0.243,0.239,0.141,0.086,southwest,3.6,No
2021/02/04,09:10,0.180,0.159,0.257,0.244,0.240,0.142,0.086,southwest,4.6,No
2021/02/04,09:20,0.179,0.161,0.258,0.244,0.239,0.141,0.085,southwest,4.6,No
2021/02/04,09:30,0.180,0.162,0.257,0.244,0.239,0.142,0.086,southwest,4.6,No
2021/02/04,09:40,0.179,0.161,0.259,0.245,0.238,0.141,0.086,southwest,4.3,No
2021/02/04,09:50,0.180,0.162,0.257,0.244,0.239,0.142,0.085,southwest,5.2,No
2021/02/04,10:00,0.179,0.161,0.258,0.243,0.240,0.142,0.087,southwest,4.3,No
2021/02/04,10:10,0.179,0.159,0.258,0.244,0.239,0.141,0.086,south-southwest,4.4,No
2021/02/04,10:20,0.179,0.160,0.257,0.245,0.241,0.141,0.086,south-southwest,5.0,No
2021/02/04,10:30,0.179,0.162,0.257,0.243,0.239,0.141,0.086,south-southeast,7.1,No
2021/02/04,10:40,0.179,0.160,0.257,0.244,0.239,0.142,0.086,south-southeast,6.6,No
2021/02/04,10:50,0.178,0.161,0.256,0.246,0.240,0.142,0.086,south,6.6,No
2021/02/04,11:00,0.179,0.161,0.257,0.243,0.239,0.143,0.087,south-southwest,4.8,No
2021/02/04,11:10,0.177,0.160,0.256,0.245,0.241,0.143,0.086,south-southwest,8.4,No
2021/02/04,11:20,0.178,0.161,0.256,0.243,0.237,0.142,0.086,southwest,12.6,No
2021/02/04,11:30,0.179,0.161,0.258,0.244,0.241,0.142,0.086,southwest,10.1,No
2021/02/04,11:40,0.180,0.162,0.257,0.245,0.238,0.143,0.086,southwest,7.7,No
2021/02/04,11:50,0.178,0.161,0.258,0.244,0.240,0.143,0.086,south-southwest,9.2,No
2021/02/04,12:00,0.180,0.160,0.258,0.246,0.239,0.143,0.086,southwest,9.0,No
2021/02/04,12:10,0.179,0.160,0.257,0.244,0.240,0.142,0.086,south-southwest,10.0,No
2021/02/04,12:20,0.180,0.160,0.258,0.243,0.239,0.142,0.086,southwest,10.9,No
2021/02/04,12:30,0.178,0.162,0.258,0.245,0.240,0.142,0.086,southwest,7.3,No
2021/02/04,12:40,0.179,0.161,0.258,0.246,0.241,0.143,0.086,west-southwest,7.4,No
2021/02/04,12:50,0.178,0.161,0.259,0.244,0.240,0.144,0.086,southwest,11.5,No
2021/02/04,13:00,0.181,0.163,0.257,0.246,0.241,0.141,0.086,west-southwest,9.2,No
2021/02/04,13:10,0.179,0.161,0.258,0.246,0.238,0.143,0.086,west-southwest,8.7,No
2021/02/04,13:20,0.180,0.163,0.258,0.246,0.240,0.143,0.086,west-southwest,5.6,No
2021/02/04,13:30,0.180,0.162,0.257,0.245,0.240,0.143,0.086,west-southwest,7.4,No
2021/02/04,13:40,0.181,0.161,0.259,0.245,0.240,0.142,0.087,west-southwest,7.6,No
2021/02/04,13:50,0.181,0.162,0.259,0.246,0.241,0.143,0.085,west,9.0,No
2021/02/04,14:00,0.179,0.161,0.258,0.244,0.241,0.143,0.086,west,13.1,No
2021/02/04,14:10,0.181,0.160,0.258,0.245,0.242,0.143,0.087,west,8.8,No
2021/02/04,14:20,0.179,0.161,0.258,0.245,0.239,0.143,0.085,west-northwest,12.0,Yes
2021/02/04,14:30,0.180,0.162,0.259,0.245,0.241,0.144,0.087,west,14.9,Yes
2021/02/04,14:40,0.181,0.163,0.261,0.246,0.244,0.146,0.089,west-northwest,9.8,Yes
2021/02/04,14:50,0.182,0.164,0.261,0.248,0.241,0.146,0.089,west,13.1,No
2021/02/04,15:00,0.182,0.164,0.263,0.249,0.242,0.146,0.088,west-northwest,12.0,No
2021/02/04,15:10,0.181,0.163,0.262,0.247,0.243,0.145,0.088,west-northwest,10.6,No
2021/02/04,15:20,0.182,0.164,0.260,0.248,0.242,0.145,0.088,west-northwest,9.0,No
2021/02/04,15:30,0.182,0.164,0.261,0.247,0.241,0.144,0.088,west-northwest,9.2,No
2021/02/04,15:40,0.180,0.162,0.260,0.246,0.243,0.142,0.088,northwest,6.7,No
2021/02/04,15:50,0.182,0.163,0.261,0.248,0.240,0.144,0.087,northwest,9.3,No
2021/02/04,16:00,0.182,0.162,0.261,0.246,0.240,0.144,0.088,northwest,9.8,No
2021/02/04,16:10,0.181,0.162,0.260,0.246,0.240,0.143,0.087,northwest,9.8,No
2021/02/04,16:20,0.182,0.162,0.261,0.247,0.241,0.144,0.087,northwest,7.3,No
2021/02/04,16:30,0.181,0.162,0.261,0.244,0.240,0.144,0.087,northwest,7.5,No
2021/02/04,16:40,0.181,0.162,0.261,0.247,0.241,0.143,0.087,northwest,8.1,No
2021/02/04,16:50,0.182,0.162,0.261,0.246,0.240,0.143,0.086,northwest,5.9,No
2021/02/04,17:00,0.180,0.162,0.260,0.246,0.241,0.142,0.087,north-northwest,5.4,No
2021/02/04,17:10,0.181,0.162,0.260,0.246,0.240,0.143,0.087,north-northwest,3.9,No
2021/02/04,17:20,0.180,0.161,0.259,0.245,0.241,0.142,0.087,north-northwest,4.7,No
2021/02/04,17:30,0.180,0.162,0.260,0.246,0.241,0.142,0.086,north-northwest,4.5,No
2021/02/04,17:40,0.181,0.162,0.260,0.245,0.241,0.143,0.087,north-northwest,4.4,No
2021/02/04,17:50,0.181,0.161,0.260,0.246,0.240,0.143,0.086,west-northwest,2.7,No
2021/02/04,18:00,0.181,0.162,0.259,0.245,0.239,0.142,0.086,north-northwest,2.8,No
2021/02/04,18:10,0.180,0.161,0.260,0.246,0.239,0.142,0.086,north-northwest,2.5,No
2021/02/04,18:20,0.180,0.161,0.260,0.246,0.240,0.142,0.086,north-northwest,2.6,No
2021/02/04,18:30,0.180,0.161,0.260,0.245,0.240,0.142,0.086,north-northwest,4.3,No
2021/02/04,18:40,0.181,0.162,0.260,0.244,0.240,0.142,0.086,north-northwest,5.5,No
2021/02/04,18:50,0.180,0.161,0.260,0.245,0.240,0.143,0.086,north-northwest,6.0,No
2021/02/04,19:00,0.180,0.162,0.260,0.245,0.240,0.141,0.086,northwest,6.2,No
2021/02/04,19:10,0.181,0.162,0.259,0.246,0.240,0.142,0.087,northwest,5.5,No
2021/02/04,19:20,0.181,0.161,0.259,0.246,0.240,0.142,0.086,northwest,6.2,No
2021/02/04,19:30,0.180,0.161,0.259,0.246,0.240,0.141,0.085,northwest,6.7,No
2021/02/04,19:40,0.180,0.161,0.259,0.244,0.239,0.142,0.086,northwest,7.6,No
2021/02/04,19:50,0.181,0.162,0.259,0.245,0.240,0.143,0.086,northwest,6.3,No
2021/02/04,20:00,0.181,0.161,0.260,0.245,0.242,0.143,0.086,northwest,6.1,No
2021/02/04,20:10,0.181,0.162,0.258,0.245,0.240,0.142,0.086,northwest,6.2,No
2021/02/04,20:20,0.180,0.162,0.260,0.245,0.240,0.142,0.087,northwest,6.8,No
2021/02/04,20:30,0.179,0.161,0.259,0.246,0.240,0.141,0.087,west-northwest,6.0,No
2021/02/04,20:40,0.181,0.162,0.259,0.245,0.240,0.143,0.086,west-northwest,8.4,No
2021/02/04,20:50,0.180,0.163,0.259,0.245,0.239,0.142,0.086,west-northwest,7.5,No
2021/02/04,21:00,0.180,0.162,0.259,0.246,0.238,0.141,0.086,northwest,4.4,No
2021/02/04,21:10,0.181,0.161,0.260,0.244,0.239,0.142,0.085,northwest,3.5,No
2021/02/04,21:20,0.181,0.161,0.261,0.245,0.239,0.143,0.086,northwest,3.2,No
2021/02/04,21:30,0.181,0.161,0.259,0.245,0.239,0.141,0.086,north-northwest,2.1,No
2021/02/04,21:40,0.180,0.162,0.259,0.244,0.241,0.142,0.086,west-northwest,1.6,No
2021/02/04,21:50,0.180,0.161,0.260,0.245,0.241,0.142,0.086,northwest,1.6,No
2021/02/04,22:00,0.181,0.162,0.259,0.245,0.240,0.142,0.086,west,2.0,No
2021/02/04,22:10,0.180,0.161,0.259,0.245,0.239,0.142,0.086,west,4.5,No
2021/02/04,22:20,0.181,0.161,0.259,0.245,0.239,0.143,0.086,west-northwest,5.6,No
2021/02/04,22:30,0.179,0.162,0.257,0.246,0.239,0.142,0.086,west-northwest,5.2,No
2021/02/04,22:40,0.181,0.163,0.258,0.245,0.240,0.142,0.086,north,3.3,No
2021/02/04,22:50,0.180,0.162,0.260,0.244,0.240,0.142,0.087,north,4.3,No
2021/02/04,23:00,0.180,0.161,0.259,0.245,0.240,0.142,0.086,north,4.5,No
2021/02/04,23:10,0.181,0.162,0.259,0.245,0.240,0.141,0.086,north,3.9,No
2021/02/04,23:20,0.181,0.162,0.258,0.245,0.240,0.143,0.087,north-northwest,3.3,No
2021/02/04,23:30,0.181,0.161,0.259,0.244,0.240,0.141,0.086,north-northwest,3.6,No
2021/02/04,23:40,0.181,0.162,0.259,0.245,0.241,0.143,0.086,north-northwest,3.4,No
2021/02/04,23:50,0.179,0.161,0.258,0.246,0.240,0.142,0.086,north-northwest,3.5,No
